TimeEDT,TemperatureF,Dew PointF,Humidity,Sea Level PressureIn,VisibilityMPH,Wind Direction,Wind SpeedMPH,Gust SpeedMPH,PrecipitationIn,Events,Conditions,WindDirDegrees,DateUTC
12:15 AM,41.0,32.0,70,30.07,10.0,South,8.1,-,N/A,,Overcast,190,2011-10-29 04:15:00
12:34 AM,41.0,32.0,70,30.07,10.0,South,6.9,-,N/A,,Overcast,190,2011-10-29 04:34:00
12:55 AM,42.8,32.0,66,30.06,10.0,South,4.6,-,N/A,,Overcast,190,2011-10-29 04:55:00
1:15 AM,42.8,32.0,66,30.06,10.0,South,3.5,-,N/A,,Overcast,180,2011-10-29 05:15:00
1:34 AM,41.0,32.0,70,30.06,10.0,South,5.8,-,N/A,,Overcast,180,2011-10-29 05:34:00
1:55 AM,41.0,32.0,70,30.05,10.0,South,3.5,-,N/A,,Scattered Clouds,190,2011-10-29 05:55:00
2:15 AM,39.2,32.0,75,30.05,10.0,Calm,Calm,-,N/A,,Scattered Clouds,0,2011-10-29 06:15:00
2:34 AM,35.6,32.0,87,30.04,10.0,SSE,3.5,-,N/A,,Clear,150,2011-10-29 06:34:00
2:55 AM,37.4,32.0,81,30.04,10.0,SSW,4.6,-,N/A,,Clear,200,2011-10-29 06:55:00
3:14 AM,37.4,32.0,81,30.04,10.0,Calm,Calm,-,N/A,,Scattered Clouds,0,2011-10-29 07:14:00
3:35 AM,37.4,32.0,81,30.04,10.0,Calm,Calm,-,N/A,,Scattered Clouds,0,2011-10-29 07:35:00
4:35 AM,37.4,32.0,81,30.03,10.0,South,4.6,-,N/A,,Clear,170,2011-10-29 08:35:00
4:54 AM,37.4,32.0,81,30.03,10.0,SSE,5.8,-,N/A,,Clear,160,2011-10-29 08:54:00
5:15 AM,33.8,32.0,93,30.03,10.0,Calm,Calm,-,N/A,,Scattered Clouds,0,2011-10-29 09:15:00
5:35 AM,35.6,32.0,87,30.03,10.0,SE,3.5,-,N/A,,Scattered Clouds,140,2011-10-29 09:35:00
6:15 AM,33.8,32.0,93,30.03,10.0,Calm,Calm,-,N/A,,Scattered Clouds,0,2011-10-29 10:15:00
6:35 AM,35.6,32.0,87,30.03,10.0,Calm,Calm,-,N/A,,Clear,0,2011-10-29 10:35:00
6:54 AM,35.6,32.0,87,30.02,10.0,Calm,Calm,-,N/A,,Scattered Clouds,0,2011-10-29 10:54:00
7:15 AM,33.8,32.0,93,30.02,10.0,ESE,3.5,-,N/A,,Mostly Cloudy,120,2011-10-29 11:15:00
7:34 AM,33.8,32.0,93,30.02,10.0,Calm,Calm,-,N/A,,Mostly Cloudy,0,2011-10-29 11:34:00
7:55 AM,33.8,32.0,93,30.01,10.0,ESE,3.5,-,N/A,,Mostly Cloudy,120,2011-10-29 11:55:00
8:15 AM,33.8,32.0,93,30.01,10.0,Calm,Calm,-,N/A,,Overcast,0,2011-10-29 12:15:00
8:34 AM,33.8,32.0,93,30.01,10.0,SE,3.5,-,N/A,,Overcast,130,2011-10-29 12:34:00
8:55 AM,35.6,33.8,93,30.01,10.0,SE,3.5,-,N/A,,Overcast,130,2011-10-29 12:55:00
9:15 AM,37.4,33.8,87,30.01,10.0,ESE,3.5,-,N/A,,Overcast,120,2011-10-29 13:15:00
9:34 AM,37.4,33.8,87,30.02,10.0,SE,4.6,-,N/A,,Overcast,130,2011-10-29 13:34:00
9:55 AM,41.0,33.8,76,30.02,10.0,SSE,4.6,-,N/A,,Overcast,150,2011-10-29 13:55:00
10:14 AM,41.0,33.8,76,30.02,10.0,SSE,4.6,-,N/A,,Overcast,150,2011-10-29 14:14:00
10:35 AM,41.0,33.8,76,30.02,10.0,Calm,Calm,-,N/A,,Overcast,0,2011-10-29 14:35:00
11:14 AM,41.0,33.8,76,30.04,10.0,WNW,4.6,-,N/A,,Overcast,290,2011-10-29 15:14:00
11:35 AM,41.0,35.6,81,30.04,10.0,West,4.6,-,N/A,,Overcast,280,2011-10-29 15:35:00
11:55 AM,42.8,35.6,76,30.05,10.0,West,9.2,-,N/A,,Overcast,280,2011-10-29 15:55:00
12:14 PM,42.8,35.6,76,30.05,10.0,WNW,12.7,-,N/A,,Overcast,290,2011-10-29 16:14:00
12:35 PM,41.0,35.6,81,30.05,10.0,WNW,8.1,-,N/A,,Light Drizzle,300,2011-10-29 16:35:00
1:14 PM,42.8,35.6,76,30.03,10.0,Calm,Calm,-,N/A,,Overcast,0,2011-10-29 17:14:00
1:35 PM,44.6,37.4,76,30.03,10.0,South,6.9,-,N/A,,Overcast,170,2011-10-29 17:35:00
1:54 PM,44.6,37.4,76,30.02,10.0,SSE,3.5,-,N/A,,Overcast,150,2011-10-29 17:54:00
2:15 PM,44.6,37.4,76,30.02,10.0,SE,4.6,-,N/A,,Overcast,130,2011-10-29 18:15:00
2:35 PM,44.6,35.6,71,30.01,10.0,Calm,Calm,-,N/A,,Scattered Clouds,0,2011-10-29 18:35:00
2:54 PM,46.4,37.4,71,30.01,10.0,ESE,4.6,-,N/A,,Mostly Cloudy,120,2011-10-29 18:54:00
3:15 PM,46.4,35.6,66,30.00,10.0,SE,5.8,-,N/A,,Overcast,140,2011-10-29 19:15:00
3:35 PM,46.4,35.6,66,30.00,10.0,ESE,3.5,-,N/A,,Overcast,110,2011-10-29 19:35:00
3:54 PM,46.4,35.6,66,30.01,10.0,Calm,Calm,-,N/A,,Mostly Cloudy,0,2011-10-29 19:54:00
4:15 PM,46.4,35.6,66,30.00,10.0,SE,3.5,-,N/A,,Clear,130,2011-10-29 20:15:00
4:34 PM,46.4,35.6,66,30.01,10.0,Calm,Calm,-,N/A,,Clear,0,2011-10-29 20:34:00
4:55 PM,46.4,35.6,66,30.02,10.0,Calm,Calm,-,N/A,,Scattered Clouds,0,2011-10-29 20:55:00
5:15 PM,42.8,33.8,70,30.03,10.0,WNW,13.8,21.9,N/A,,Overcast,290,2011-10-29 21:15:00
5:34 PM,41.0,35.6,81,30.03,4.0,WNW,3.5,-,N/A,Rain,Rain,300,2011-10-29 21:34:00
5:55 PM,42.8,35.6,76,30.03,10.0,Calm,Calm,-,N/A,Rain,Light Rain,0,2011-10-29 21:55:00
6:15 PM,42.8,35.6,76,30.03,10.0,East,3.5,-,N/A,,Mostly Cloudy,100,2011-10-29 22:15:00
6:34 PM,41.0,35.6,81,30.04,7.0,South,3.5,-,N/A,,Scattered Clouds,170,2011-10-29 22:34:00
6:55 PM,39.2,35.6,87,30.05,10.0,Calm,Calm,-,N/A,,Scattered Clouds,0,2011-10-29 22:55:00
7:15 PM,41.0,35.6,81,30.07,10.0,Calm,Calm,-,N/A,,Mostly Cloudy,0,2011-10-29 23:15:00
7:34 PM,41.0,35.6,81,30.07,10.0,Calm,Calm,-,N/A,,Scattered Clouds,0,2011-10-29 23:34:00
7:55 PM,39.2,35.6,87,30.08,10.0,ESE,3.5,-,N/A,,Mostly Cloudy,120,2011-10-29 23:55:00
8:15 PM,37.4,35.6,93,30.08,10.0,South,3.5,-,N/A,,Mostly Cloudy,170,2011-10-30 00:15:00
8:35 PM,39.2,35.6,87,30.08,10.0,Calm,Calm,-,N/A,,Scattered Clouds,0,2011-10-30 00:35:00
8:55 PM,37.4,35.6,93,30.08,10.0,Calm,Calm,-,N/A,,Clear,0,2011-10-30 00:55:00
9:14 PM,35.6,33.8,93,30.09,7.0,Calm,Calm,-,N/A,,Clear,0,2011-10-30 01:14:00
9:35 PM,35.6,33.8,93,30.09,7.0,Calm,Calm,-,N/A,,Clear,0,2011-10-30 01:35:00
9:55 PM,33.8,33.8,100,30.09,4.0,Calm,Calm,-,N/A,,Clear,0,2011-10-30 01:55:00
10:14 PM,33.8,33.8,100,30.10,3.0,Calm,Calm,-,N/A,,Clear,0,2011-10-30 02:14:00
10:35 PM,33.8,33.8,100,30.10,3.0,Calm,Calm,-,N/A,,Clear,0,2011-10-30 02:35:00
10:55 PM,33.8,33.8,100,30.10,1.2,Calm,Calm,-,N/A,,Mist,0,2011-10-30 02:55:00
11:14 PM,33.8,33.8,100,30.10,1.8,Calm,Calm,-,N/A,,Mist,0,2011-10-30 03:14:00
11:35 PM,33.8,33.8,100,30.10,0.8,Calm,Calm,-,N/A,,Mist,0,2011-10-30 03:35:00
11:55 PM,33.8,32.0,93,30.10,3.0,Calm,Calm,-,N/A,,Clear,0,2011-10-30 03:55:00